Regional Weather Roundup
Issued by NWS Pendleton, OR

Home | Current Version | Previous Version | Text Only | Print | Product List | Glossary On
Versions: 1 2 3 4 5 6 7 8 9 10 11 12 13 14 15 16 17 18 19 20 21 22 23 24 25 26 27 28 29 30 31 32 33 34 35 36 37 38 39 40 41 42 43 44 45 46 47 48 49 50
000
ASUS46 KPDT 210710
RWRPDT
PENDLETON REGIONAL WEATHER ROUNDUP
NATIONAL WEATHER SERVICE PENDLETON OREGON
1100 PM PST FRI JAN 20 2017

NOTE: FAIR INDICATES FEW OR NO CLOUDS BELOW 12,000 FEET WITH NO
SIGNIFICANT WEATHER AND/OR OBSTRUCTIONS TO VISIBILITY.

# INDICATES UNOFFICIAL STATION AND DATA

WAZ520-210810-
EAST SLOPES OF WASHINGTON CASCADES

CITY            SKY/WX      TMP DP  RH  WIND    PRES   REMARKS
#CLE ELUM HS    N/A         34  31  89  CALM    29.22R
#CLE ELUM LAKE  N/A         31  30  96  CALM    29.26R
#GLENWOOD       N/A         33  32  96  CALM    29.27R
#NELSON 3SW     N/A         31  30  96  CALM    29.47S
#NILE           N/A         31  30  96  CALM    28.53R
#TEANAWAY 4NE   N/A         32  32  100 CALM    N/A
#TROUT LAKE 1NE N/A         33  32  96  CALM    29.27R
#TROUT LAKE 1E  N/A         32  31  96  CALM    29.23R
$$

WAZ521-210810-
SIMCOE HIGHLANDS

CITY            SKY/WX      TMP DP  RH  WIND    PRES   REMARKS
#BICKLETON HS   N/A         32  32  100 CALM    28.88S
#CENTERVILLE 1SWN/A         31  29  92  CALM    29.24R
#GOLDENDALE 1NE N/A         33  28  82  CALM    N/A
#GOLDENDALE 4W  N/A         32  29  89  CALM    29.28R
#GOODNOE HILLS  N/A         32  29  89  NW2     N/A
#LYLE 6NE       N/A         32  31  96  CALM    29.25R
#PITT 4SE       N/A         31  30  96  CALM    29.29R
$$

WAZ026-210810-
KITTITAS VALLEY

CITY            SKY/WX      TMP DP  RH  WIND    PRES   REMARKS
ELLENSBURG AP   FOG         34  31  89  SE3     29.23R VSB 3/4
#ELLENSBURG CWU N/A         32  31  96  CALM    29.23R
#ELLENSBURG 3NE N/A         32  31  96  CALM    27.34S
#ELLENSBURG 1E  N/A         32  N/A N/A CALM    N/A
#KITTITAS 4N    N/A         32  30  92  W1      29.30R
#KITTITAS 3S    N/A         32  31  96  CALM    29.28R
#THORP 6N       N/A         32  31  96  CALM    29.30R
$$

WAZ027-210810-
YAKIMA VALLEY

CITY            SKY/WX      TMP DP  RH  WIND    PRES   REMARKS
SUNNYSIDE AP    CLOUDY      28  28  100 CALM    29.27R FOG
YAKIMA AIRPORT  LGT RAIN    36  34  92  W3      29.26R
YAKIMA-VAGABOND MIXED PCPN  33  31  92  CALM    29.23R
#DONALD 2NE     N/A         33  28  82  CALM    28.12R
#MABTON         N/A         29  28  96  CALM    29.26R
#NACHES 2SW     N/A         34  33  96  CALM    29.21R
#TERRACE HTS    N/A         33  32  96  CALM    29.27R
#TOPPENISH      N/A         32  31  96  CALM    29.22R
#WEST VALLEY    N/A         34  33  96  CALM    29.28R
#W YAKIMA       N/A         34  32  92  CALM    29.30R
#WHITE SWAN 5E  N/A         34  33  96  CALM    29.31R
#WILEY CITY 3W  N/A         33  29  85  CALM    29.21R
$$

WAZ028-210810-
LOWER COLUMBIA BASIN...WASHINGTON

CITY            SKY/WX      TMP DP  RH  WIND    PRES   REMARKS
PASCO           CLOUDY      34  33  96  W5      29.27R FOG
PROSSER AWOS    N/A         30  30  100 CALM    29.31R
RICHLAND AWOS   CLOUDY      34  33  96  CALM    29.27R FOG
#BENTON CITY    N/A         32  31  96  W2      29.20R
#CONNELL 5N     N/A         34  32  92  CALM    29.27R
#CONNELL 5NW    N/A         33  31  92  CALM    29.24R
#ELTOPIA 6NW    N/A         34  33  96  CALM    28.23R
#KAHLOTUS       N/A         37  32  82  S6      29.26R
#KENNEWICK 3S   N/A         35  32  89  CALM    29.29R
#PATERSON       N/A         35  32  89  CALM    29.26R
#SAGEMOOR 2W    N/A         36  32  85  NW5     29.12R
#TOUCHET 2S     N/A         30  28  92  CALM    29.26R
#WEST PASCO     N/A         34  32  92  CALM    29.18R
$$

WAZ029-210810-
FOOTHILLS OF THE BLUES...WASHINGTON

CITY            SKY/WX      TMP DP  RH  WIND    PRES   REMARKS
WALLA WALLA AP  CLOUDY      32  30  92  W7      29.22R FOG
#CLYDE 6NW      N/A         35  32  89  CALM    29.25R
#DAYTON SCHOOL  N/A         39  27  62  CALM    29.28R
#LOWDEN 2SE     N/A         32  31  96  CALM    29.22R
#PLEASANT VIEW 1N/A         38  31  76  S2      29.30R
#PRESCOTT       N/A         35  33  92  CALM    29.25R
#WHITMAN COLLEGEN/A         34  31  89  CALM    29.31R
#WAITSBURG 5S   N/A         38  31  76  NE3     29.32S
#WAITSBURG 8N   N/A         35  N/A N/A N2      29.06S
#WALLA WALLA 5E N/A         38  34  85  NW7     N/A
#WALLA WALLA U  N/A         34  32  92  CALM    29.28R
#WHITMAN MISSIONN/A         33  31  92  CALM    29.28S
$$

WAZ030-210810-
BLUE MOUNTAINS...WASHINGTON

CITY            SKY/WX      TMP DP  RH  WIND    PRES   REMARKS
#DIXIE 5SE      N/A         40  27  59  E6      29.10R
#SKI BLUEWOOD   N/A         31  26  81  SW8G24  29.16S
$$

ORZ009-041-WAZ024-210810-
COLUMBIA RIVER GORGE

CITY            SKY/WX      TMP DP  RH  WIND    PRES   REMARKS
HOOD RIVER AP   CLOUDY      32  32  100 CALM    29.27R FOG
THE DALLES AP   CLOUDY      34  33  96  CALM    29.28R FOG
#ARLINGTON AIRPON/A         33  32  96  NW5     29.30R
#ARLINGTON HS   N/A         34  32  92  CALM    29.19R
#CELILO DOT     N/A         34  32  92  S6      N/A
#LYLE           N/A         34  33  96  S1      29.30R
#MOSIER 1S      N/A         33  31  92  CALM    29.26R
#MURDOCK        N/A         34  32  92  CALM    29.26R
#RUFUS DOT      N/A         34  34  100 NW3     N/A
#SMITHVILLE     N/A         34  32  92  N1      29.24R

$$

ORZ510-210810-
NORTH CENTRAL OREGON

CITY            SKY/WX      TMP DP  RH  WIND    PRES   REMARKS
#ANTELOPE       N/A         35  31  85  CALM    29.07R
#CHENOWITH 1W   N/A         33  33  100 NE6     N/A
#COW CYN RST AREN/A         34  N/A N/A NE1     N/A
#DUFUR 9E       N/A         31  30  96  CALM    29.31R
#GRASS VALLEY 1SN/A         31  30  96  CALM    29.19R
#KENT DOT       N/A         30  27  88  CALM    N/A
#MAUPIN SCHOOL  N/A         33  31  92  CALM    29.30R
#SHANIKO 5WSW   N/A         33  27  78  N10     N/A
#SHANIKO 4NW    N/A         32  30  92  SE9     29.14S
#TYGH VALLEY 2NEN/A         32  31  96  CALM    29.28R
#WAPANITIA AIRPON/A         32  31  96  CALM    29.30R
#WASCO AIRPORT  N/A         32  30  92  W1      N/A
#WASCO 5NE      N/A         31  29  92  CALM    29.28R
$$

ORZ511-210810-
CENTRAL OREGON

CITY            SKY/WX      TMP DP  RH  WIND    PRES   REMARKS
BEND AIRPORT    PTCLDY      30  27  88  S7      29.18R
MADRAS AIRPORT  FRZFOG      32  32  100 SW3     29.21R VSB 1/4
PRINEVILLE AP   CLOUDY      34  28  78  SE6     29.18R
REDMOND AIRPORT CLOUDY      29  25  85  SE5     29.18R
#ASHWOOD SCHOOL N/A         33  30  89  CALM    29.21S
#BEND 1SW       N/A         30  29  96  SW1     N/A
#BEND-AWBREY    N/A         33  31  92  S7      29.23R
#BEND-KIM LN    N/A         30  29  96  CALM    29.17R
#CULVER         N/A         30  28  92  CALM    29.17R
#CULVER 8W      N/A         32  30  92  CALM    29.30R
#MADRAS 4S      N/A         32  30  92  CALM    29.32R
#POWELL BUTTE   N/A         36  25  64  NE1     29.23R
#PRINEVILLE 3N  N/A         30  27  88  CALM    29.24R
#WARM SPRINGS   N/A         31  30  96  CALM    29.21R

$$


ORZ509-210810-
EAST SLOPES OF OREGON CASCADES

CITY            SKY/WX      TMP DP  RH  WIND    PRES   REMARKS
SISTERS AWOS    N/A         28  27  96  CALM    29.22R
#BLUE BOX PASS  N/A         29  N/A N/A NE1     N/A
#CAMP SHERMAN   N/A         32  30  92  CALM    29.28R
#LA PINE 4NW    N/A         30  27  88  CALM    29.26R
#LAVA BUTTE DOT N/A         27  25  92  SE1     N/A
#SISTERS ODOT   N/A         28  N/A N/A CALM    N/A
#SISTERS 3N     N/A         28  24  85  CALM    29.26R
#SUNRIVER       N/A         30  29  96  S1      29.25R
#TUMALO 3W      N/A         31  29  92  S2      29.10R
#WANOGA BUTTE D N/A         25  25  100 CALM    N/A

$$

ORZ044-210810-
LOWER COLUMBIA BASIN...OREGON

CITY            SKY/WX      TMP DP  RH  WIND    PRES   REMARKS
HERMISTON       CLOUDY      34  33  96  CALM    29.25R FOG
#BOARDMAN SCHOOLN/A         34  32  92  CALM    29.27R
#BOARDMAN 8SW   N/A         34  32  92  N3      29.28R
#ECHO 8SW       N/A         34  34  100 CALM    29.27R
#I-84 EX 198 DOTN/A         33  32  96  N3      N/A
#UMATILLA       N/A         35  30  82  CALM    29.21R
$$

ORZ507-210810-
NORTHERN FOOTHILLS OF THE BLUES

CITY            SKY/WX      TMP DP  RH  WIND    PRES   REMARKS
PENDLETON AIRPT CLOUDY      32  31  96  N8      29.21R FOG
#ADAMS 3WNW     N/A         40  32  73  CALM    29.23R
#ATHENA         N/A         41  32  70  E1      29.25R
#CAYUSE         N/A         43  32  65  S8      29.21R
#HELIX SCHOOL   N/A         37  32  82  N8      29.23R
#HELIX 3N       N/A         38  32  79  N10     29.21S
#HOLDMAN 5SE    N/A         32  30  92  CALM    29.25R
#HOLDMAN 6E     N/A         31  29  92  CALM    29.05R
#M-F GROVE ELEM N/A         34  30  85  CALM    29.22R
#PENDLETON DNTN N/A         35  24  64  CALM    29.24R
#PDT AQUATIC CTRN/A         34  27  75  W2      29.25S
#PDT SUNRIDGE   N/A         34  31  89  NW2     29.23R
#PENDLETON 7NW  N/A         34  30  85  CALM    32.00S
#PILOT ROCK     N/A         38  28  67  S1      29.26R
#TUTUILLA       N/A         35  29  78  CALM    29.23R
#WESTON SCHOOL  N/A         42  27  55  S8      29.15R

$$

ORZ508-210810-
SOUTHERN FOOTHILLS OF THE BLUES

CITY            SKY/WX      TMP DP  RH  WIND    PRES   REMARKS
#AJAX           N/A         31  24  75  N5      27.17S
#CONDON SCHOOL  N/A         35  33  92  E2      29.20R
#CONDON 5W      N/A         33  30  89  SE3     29.15R
#FOSSIL SCHOOL  N/A         34  31  89  CALM    29.20R
#HEPPNER EOC    N/A         33  30  89  E1      29.17R
#HEPPNER 4NE    N/A         34  29  82  CALM    29.23R
#LEXINGTON 2SE  N/A         34  31  89  CALM    29.18R
#MIKKALO        N/A         32  28  85  CALM    29.36R
#OLEX 4N        N/A         32  31  96  CALM    29.25R
#RUGGS 5NE      N/A         36  28  72  CALM    29.33S
#RUGGS 2SW      N/A         36  29  75  S3      29.26R

$$

ORZ502-503-210810-
BLUE MOUNTAINS

CITY            SKY/WX      TMP DP  RH  WIND    PRES   REMARKS
MEACHAM         CLOUDY      33  26  75  CALM    29.19R
#BATTLE MTN DOT N/A         30  23  75  S6      N/A
#GREENHORN 9SW  N/A         32  28  85  E2      25.48S
#HEPPNER 15SE   N/A         32  27  82  W2      N/A
#LADD CYN SMT   N/A         N/A N/A N/A SE9     N/A
#LADD CREEK ODOTN/A         33  30  89  SW6     N/A
#LONG CREEK HS  N/A         33  31  92  E7      N/A
#N POWDER DOT   N/A         34  29  82  S17     N/A    WCI 23
#PIKES PEAK     N/A         38  25  59  W23G30  27.99S WCI 27
#TOLLGATE       N/A         27  26  96  S7      29.16R
#TROY SCHOOL    N/A         31  29  92  CALM    29.18R
#UKIAH          N/A         32  28  85  CALM    29.19R
#WESTON 4E      N/A         35  29  78  E7      29.21R
$$

ORZ505-210810-
JOHN DAY BASIN

CITY            SKY/WX      TMP DP  RH  WIND    PRES   REMARKS
JOHN DAY        MOCLDY      34  28  78  CALM    29.22R
#ANTELOPE 9ESE  N/A         32  30  92  CALM    N/A
#DAYVILLE SCHOOLN/A         35  29  78  CALM    29.24R
#MITCHELL       N/A         36  32  85  E3      29.40R
#MITCHELL 8NW   N/A         36  29  75  S1      29.06R
#MONUMENT HS    N/A         32  27  82  CALM    29.21R
#MT. VERNON 5SE N/A         32  27  82  E1      29.15R
#SPRAY SCHOOL   N/A         32  N/A N/A CALM    N/A
$$

ORZ506-210810-
OCHOCO AND JOHN DAY HIGHLANDS

CITY            SKY/WX      TMP DP  RH  WIND    PRES   REMARKS
#HORSE RIDGE DO N/A         31  25  78  S3      N/A
#KEYES SMT DOT  N/A         28  26  92  W2      N/A
#PAULINA SCHOOL N/A         31  27  85  CALM    N/A
#PRAIRIE CITY   N/A         33  24  69  CALM    29.36S
#SENECA         N/A         25  N/A N/A CALM    N/A
#SENECA 9NW     N/A         25  24  96  CALM    29.29R
$$

ORZ049-210810-
GRANDE RONDE VALLEY

CITY            SKY/WX      TMP DP  RH  WIND    PRES   REMARKS
LA GRANDE       CLOUDY      37  30  75  S16     29.24R WCI 28
#COVE           N/A         39  32  76  SE6     29.32R
#COVE 6NW       N/A         35  31  85  SE1     29.31R
#ELGIN 3N       N/A         36  26  67  S8      29.28R
#ELGIN 1E       N/A         36  30  79  CALM    N/A
#IMBLER SCHOOL  N/A         34  30  85  CALM    29.27R
#ISLAND CITY 4N N/A         39  38  96  CALM    29.21R
#LADD CYN DOT   N/A         36  31  82  S15     N/A    WCI 27
#UNION 1S       N/A         38  31  76  SE17G24 29.30R WCI 29
$$

ORZ050-210810-
WALLOWA COUNTY

CITY            SKY/WX      TMP DP  RH  WIND    PRES   REMARKS
JOSEPH AIRPORT  FOG         27  27  100 CALM    29.23R VSB 3/4
#IMNAHA SCHOOL  N/A         31  30  96  E2      29.30R
#IMNAHA 10S     N/A         39  28  64  SW7     29.28S
#JOSEPH 3N      N/A         25  20  81  CALM    29.33R
#JOSEPH 3W      N/A         24  21  88  CALM    29.15R
#LOSTINE        N/A         25  24  96  CALM    29.17R
#LOSTINE 3SE    N/A         25  25  100 CALM    29.28R
#MT HOWARD 8000 N/A         19  16  88  S7      29.09R
#PROMISE 1S     N/A         27  25  92  CALM    29.41S
#WALLOWA SCHOOL N/A         25  24  96  CALM    29.29R



$$



USA.gov is the U.S. government's official web portal to all federal, state and local government web resources and services.